, AK

(GMT )
Valdez Airport

Weather History for PAVD - October, 2012

Change the Weather History Date:

Friday, October 12, 2012

  Actual Average Record
Temperature  
Mean Temperature 38 °F -  
Max Temperature 42 °F 44 °F 54 °F (1964)
Min Temperature 33 °F 34 °F 19 °F (2003)
Degree Days  
Heating Degree Days 28    
Moisture  
Dew Point 19 °F    
Average Humidity 47    
Maximum Humidity 56    
Minimum Humidity 36    
Precipitation  
Precipitation 0.00 in - - ()
Sea Level Pressure  
Sea Level Pressure 29.30 in    
Wind  
Wind Speed 7 mph (East)    
Max Wind Speed 16 mph    
Max Gust Speed 22 mph    
Visibility 10 miles    
Events      
Averages and records for this station are not official NWS values.
T = Trace of Precipitation, MM = Missing Value Source: NWS Daily Summary

Daily Weather History Graph

Daily Weather History Graph

Search for Another Location

Airport or City:

Astronomy

Oct. 12, 2012 Rise Set
Actual Time 8:21 AM AKDT 6:40 PM AKDT
Civil Twilight 7:37 AM AKDT 7:23 PM AKDT
Nautical Twilight 6:47 AM AKDT 8:13 PM AKDT
Astronomical Twilight 5:56 AM AKDT 9:03 PM AKDT
Moon 4:32 AM AKDT (10/12) 5:26 PM AKDT (10/12)
Length of Visible Light 11h 46m
Length of Day
10h 19m
Waning Crescent, 10% of the Moon is Illuminated
Oct 12
Waning Crescent
Oct 15
New
Oct 21
First Quarter
Oct 29
Full
Nov 6
Last Quarter

Hourly Weather History & Observations

Time (AKDT) Temp. Windchill Dew Point Humidity Pressure Visibility Wind Dir Wind Speed Gust Speed Precip Events Conditions
12:16 AM 35.6 °F 31.7 °F 21.2 °F 56% 29.56 in 10.0 mi NNE 4.6 mph - N/A   Clear
12:36 AM 37.4 °F 34.9 °F 17.6 °F 45% 29.55 in 10.0 mi ESE 3.5 mph - N/A   Clear
12:56 AM 37.4 °F 32.8 °F 19.4 °F 48% 29.54 in 10.0 mi ESE 5.8 mph - N/A   Clear
1:16 AM 35.6 °F 29.9 °F 21.2 °F 56% 29.53 in 10.0 mi NNE 6.9 mph - N/A   Clear
1:36 AM 37.4 °F - 19.4 °F 48% 29.52 in 10.0 mi Calm Calm - N/A   Clear
1:56 AM 33.8 °F 29.6 °F 19.4 °F 56% 29.51 in 10.0 mi NNE 4.6 mph - N/A   Clear
2:16 AM 35.6 °F 31.7 °F 19.4 °F 52% 29.51 in 10.0 mi East 4.6 mph - N/A   Clear
2:36 AM 35.6 °F 30.7 °F 19.4 °F 52% 29.50 in 10.0 mi ENE 5.8 mph - N/A   Clear
2:56 AM 35.6 °F 30.7 °F 19.4 °F 52% 29.49 in 10.0 mi East 5.8 mph - N/A   Clear
3:16 AM 35.6 °F 30.7 °F 19.4 °F 52% 29.48 in 10.0 mi NE 5.8 mph - N/A   Clear
3:36 AM 35.6 °F 29.2 °F 19.4 °F 52% 29.47 in 10.0 mi ENE 8.1 mph - N/A   Clear
3:56 AM 35.6 °F 29.2 °F 19.4 °F 52% 29.46 in 10.0 mi ESE 8.1 mph - N/A   Clear
4:16 AM 35.6 °F 29.2 °F 19.4 °F 52% 29.46 in 10.0 mi NE 8.1 mph - N/A   Clear
4:36 AM 35.6 °F 29.9 °F 19.4 °F 52% 29.45 in 10.0 mi ENE 6.9 mph - N/A   Clear
4:56 AM 35.6 °F 29.9 °F 19.4 °F 52% 29.44 in 10.0 mi East 6.9 mph - N/A   Clear
5:16 AM 35.6 °F 29.2 °F 17.6 °F 48% 29.43 in 10.0 mi East 8.1 mph - N/A   Clear
5:36 AM 35.6 °F 28.0 °F 19.4 °F 52% 29.42 in 10.0 mi ENE 10.4 mph - N/A   Clear
5:56 AM 35.6 °F 29.2 °F 19.4 °F 52% 29.41 in 10.0 mi East 8.1 mph - N/A   Clear
6:16 AM 35.6 °F 30.7 °F 19.4 °F 52% 29.40 in 10.0 mi East 5.8 mph - N/A   Clear
6:36 AM 33.8 °F 27.7 °F 17.6 °F 52% 29.40 in 10.0 mi East 6.9 mph - N/A   Clear
6:56 AM 33.8 °F 27.0 °F 17.6 °F 52% 29.38 in 10.0 mi ENE 8.1 mph - N/A   Partly Cloudy
7:16 AM 35.6 °F 31.7 °F 19.4 °F 52% 29.38 in 10.0 mi ENE 4.6 mph - N/A   Partly Cloudy
7:36 AM 35.6 °F 28.6 °F 17.6 °F 48% 29.37 in 10.0 mi NE 9.2 mph - N/A   Partly Cloudy
7:56 AM 35.6 °F 28.0 °F 17.6 °F 48% 29.36 in 10.0 mi ENE 10.4 mph - N/A   Clear
8:16 AM 35.6 °F 29.2 °F 17.6 °F 48% 29.35 in 10.0 mi NNE 8.1 mph - N/A   Clear
8:36 AM 33.8 °F 27.7 °F 17.6 °F 52% 29.34 in 10.0 mi NE 6.9 mph - N/A   Clear
8:56 AM 35.6 °F 27.1 °F 17.6 °F 48% 29.33 in 10.0 mi NE 12.7 mph 18.4 mph N/A   Clear
9:16 AM 35.6 °F 28.6 °F 15.8 °F 44% 29.33 in 10.0 mi ENE 9.2 mph 16.1 mph N/A   Clear
9:36 AM 35.6 °F 28.0 °F 17.6 °F 48% 29.32 in 10.0 mi East 10.4 mph 19.6 mph N/A   Clear
9:56 AM 35.6 °F 28.0 °F 17.6 °F 48% 29.31 in 10.0 mi ENE 10.4 mph 17.3 mph N/A   Clear
10:36 AM 37.4 °F 32.1 °F 17.6 °F 45% 29.30 in 10.0 mi ENE 6.9 mph 18.4 mph N/A   Clear
10:56 AM 37.4 °F 31.4 °F 19.4 °F 48% 29.30 in 10.0 mi East 8.1 mph - N/A   Clear
11:16 AM 37.4 °F 30.3 °F 17.6 °F 45% 29.29 in 10.0 mi East 10.4 mph 16.1 mph N/A   Clear
11:36 AM 37.4 °F 31.4 °F 17.6 °F 45% 29.29 in 10.0 mi NE 8.1 mph - N/A   Clear
11:56 AM 39.2 °F 30.8 °F 19.4 °F 45% 29.28 in 10.0 mi ESE 15.0 mph 18.4 mph N/A   Clear
12:16 PM 39.2 °F 33.0 °F 17.6 °F 42% 29.27 in 10.0 mi SE 9.2 mph 17.3 mph N/A   Clear
12:56 PM 41.0 °F 36.4 °F 17.6 °F 39% 29.26 in 10.0 mi SSE 6.9 mph 20.7 mph N/A   Clear
1:16 PM 42.8 °F 36.6 °F 17.6 °F 36% 29.25 in 10.0 mi SE 11.5 mph 17.3 mph N/A   Clear
1:36 PM 42.8 °F 36.6 °F 17.6 °F 36% 29.24 in 10.0 mi SE 11.5 mph 18.4 mph N/A   Clear
1:56 PM 42.8 °F 35.8 °F 17.6 °F 36% 29.22 in 10.0 mi SE 13.8 mph 21.9 mph N/A   Clear
2:16 PM 42.8 °F 36.2 °F 17.6 °F 36% 29.22 in 10.0 mi SE 12.7 mph 19.6 mph N/A   Clear
2:36 PM 42.8 °F 36.2 °F 17.6 °F 36% 29.21 in 10.0 mi SE 12.7 mph 19.6 mph N/A   Clear
2:56 PM 42.8 °F 37.5 °F 17.6 °F 36% 29.21 in 10.0 mi SE 9.2 mph 20.7 mph N/A   Partly Cloudy
3:16 PM 42.8 °F 35.8 °F 19.4 °F 39% 29.20 in 10.0 mi SE 13.8 mph 18.4 mph N/A   Partly Cloudy
3:36 PM 42.8 °F 35.1 °F 17.6 °F 36% 29.19 in 10.0 mi SE 16.1 mph 21.9 mph N/A   Partly Cloudy
3:56 PM 42.8 °F 36.2 °F 19.4 °F 39% 29.18 in 10.0 mi SE 12.7 mph 16.1 mph N/A   Partly Cloudy
4:16 PM 42.8 °F 37.5 °F 19.4 °F 39% 29.18 in 10.0 mi ESE 9.2 mph - N/A   Partly Cloudy
4:36 PM 42.8 °F 36.6 °F 19.4 °F 39% 29.17 in 10.0 mi SE 11.5 mph 16.1 mph N/A   Partly Cloudy
4:56 PM 42.8 °F 38.6 °F 19.4 °F 39% 29.17 in 10.0 mi SE 6.9 mph 20.7 mph N/A   Clear
5:16 PM 42.8 °F 37.5 °F 19.4 °F 39% 29.17 in 10.0 mi SE 9.2 mph - N/A   Clear
5:36 PM 41.0 °F 38.0 °F 19.4 °F 42% 29.17 in 10.0 mi ESE 4.6 mph - N/A   Clear
5:56 PM 41.0 °F 38.0 °F 19.4 °F 42% 29.17 in 10.0 mi NE 4.6 mph - N/A   Clear
6:16 PM 39.2 °F 37.0 °F 19.4 °F 45% 29.17 in 10.0 mi East 3.5 mph - N/A   Clear
6:36 PM 39.2 °F 35.0 °F 19.4 °F 45% 29.17 in 10.0 mi East 5.8 mph - N/A   Clear
6:56 PM 39.2 °F 33.0 °F 19.4 °F 45% 29.17 in 10.0 mi ESE 9.2 mph - N/A   Partly Cloudy
7:16 PM 39.2 °F 34.2 °F 17.6 °F 42% 29.17 in 10.0 mi NE 6.9 mph - N/A   Partly Cloudy
7:36 PM 37.4 °F 32.8 °F 17.6 °F 45% 29.17 in 10.0 mi NE 5.8 mph - N/A   Partly Cloudy
7:56 PM 37.4 °F 34.9 °F 19.4 °F 48% 29.17 in 10.0 mi ESE 3.5 mph - N/A   Partly Cloudy
8:16 PM 37.4 °F 31.4 °F 17.6 °F 45% 29.17 in 10.0 mi SE 8.1 mph - N/A   Partly Cloudy
8:36 PM 35.6 °F 32.8 °F 17.6 °F 48% 29.17 in 10.0 mi NNE 3.5 mph - N/A   Partly Cloudy
8:56 PM 35.6 °F 31.7 °F 19.4 °F 52% 29.17 in 10.0 mi NE 4.6 mph - N/A   Clear
9:16 PM 35.6 °F 31.7 °F 17.6 °F 48% 29.17 in 10.0 mi East 4.6 mph - N/A   Clear
9:36 PM 35.6 °F - 19.4 °F 52% 29.17 in 10.0 mi Calm Calm - N/A   Clear
9:56 PM 35.6 °F 28.0 °F 19.4 °F 52% 29.17 in 10.0 mi ESE 10.4 mph - N/A   Clear
10:16 PM 35.6 °F - 17.6 °F 48% 29.18 in 10.0 mi Calm Calm - N/A   Clear
10:36 PM 35.6 °F 30.7 °F 17.6 °F 48% 29.18 in 10.0 mi East 5.8 mph - N/A   Clear
10:56 PM 35.6 °F 29.2 °F 19.4 °F 52% 29.18 in 10.0 mi SE 8.1 mph 17.3 mph N/A   Clear
11:16 PM 35.6 °F 31.7 °F 19.4 °F 52% 29.18 in 10.0 mi East 4.6 mph - N/A   Clear
11:36 PM 35.6 °F 31.7 °F 17.6 °F 48% 29.18 in 10.0 mi ESE 4.6 mph 16.1 mph N/A   Clear
11:56 PM 35.6 °F 31.7 °F 19.4 °F 52% 29.18 in 10.0 mi SE 4.6 mph - N/A   Clear